Location: *
(45.1961°N, 1.9694°E)
Time: 09:19:46
(UTC+00:00)

Iridium 2 - Pass Details

Date: 25 August 2019
Orbit: 507 x 516 km, 85.5° (Epoch: 23 September)

Event Time Altitude Azimuth Distance (km) Brightness Sun altitude
Exits shadow 20:13:12 24° 158° (SSE) 1,073 4.8 -15.3°
Maximum altitude 20:15:11 53° 91° (E) 631 3.8 -15.6°
Drops below altitude 10° 20:18:53 10° 14° (NNE) 1,734 6.6 -16.1°
Sets 20:21:02 0° 9° (N) 2,626 7.6 -16.4°
